STARLINK-3160 (49454 NORAD) Tracking and Keplerian Element Data

This shows tracking and keplerian element data for the satellite.

Feedback or suggestion? Click here.




ElementValue
Catalog49454
NameSTARLINK-3160
Epoch Orbit371
Epoch Day339.91667824
Epoch Year2021
RAAN22.2056
Inclination53.2186
Eccentricity0.0002137
Argument of Perigee29.6899
Mean Anonmoly54.3565
Mean Motion15.73171354
Decay Rate0.00047668
L11 49454U 21104AY 21339.91667824 .00047668 00000+0 34253-3 0 9995
L22 49454 53.2186 22.2056 0002137 29.6899 54.3565 15.73171354 3712

Live tracking and technical data element details for STARLINK-3160 (NORAD 49454). STARLINK-3160 can be tracked NOW for your location showing map with azimuth and elevation plus other details from your city location.

Track the satellite on the map from your city or location and see movement details for azimuth, elevation, latitude, longitude, range, height, and movement on the map or in text.







IsCatalogInMostPopularTable: catalog: 49454, numindb: 1
Update: records affected: 1



GetName: 49454 STARLINK-3160

Hit Count: updated at: Wed, 08 Dec 2021 15:59:05 GMT